CW0730 Weather Reports


time (UTC)temp
F
wind
direction
speed
knots
gust
knots
rain 1hr
in
rain 24hr
in
rain mn
in
humidity
%
barometer
mb
20260505153109 53 146 13.0 22.6 0.00 0.02 0.00 86 1005.3
20260505151555 53 162 16.5 27.8 0.00 0.02 0.00 86 1005.7
20260505124536 51 190 7.8 15.6 0.00 0.02 0.00 86 1005.9
20260505123025 51 150 10.4 16.5 0.00 0.02 0.00 86 1006.0
20260505121521 50 140 13.0 20.0 0.00 0.02 0.00 87 1006.1
20260505120017 50 148 12.2 17.4 0.00 0.02 0.00 87 1006.2
20260505114515 50 143 9.6 13.9 0.00 0.02 0.00 86 1006.1
20260505113012 50 155 5.2 10.4 0.00 0.02 0.00 86 1006.2
20260505111509 49 122 4.3 9.6 0.00 0.02 0.00 87 1006.1
20260505101555 47 155 6.1 10.4 0.00 0.02 0.00 89 1006.3
20260505100050 47 158 5.2 9.6 0.00 0.02 0.00 89 1006.1
20260505094546 47 146 5.2 8.7 0.00 0.02 0.00 88 1006.2
20260505093050 48 150 7.0 11.3 0.00 0.02 0.00 86 1006.0
20260505091543 48 158 6.1 8.7 0.00 0.02 0.00 86 1006.0
20260505090043 48 141 7.0 9.6 0.00 0.02 0.00 86 1006.0
20260505084547 48 117 4.3 8.7 0.00 0.02 0.00 85 1005.9
20260505083047 48 118 3.5 5.2 0.00 0.02 0.00 85 1006.0
20260505081541 48 143 3.5 5.2 0.00 0.02 0.00 85 1005.9
20260505080036 49 124 3.5 6.1 0.00 0.02 0.00 84 1005.9
20260505074536 49 123 3.5 5.2 0.00 0.02 0.00 84 1005.9
20260505073037 49 169 5.2 9.6 0.00 0.02 0.00 84 1005.9
20260505071535 49 158 4.3 11.3 0.00 0.02 0.00 83 1006.0
20260505070041 49 167 3.5 10.4 0.00 0.02 0.00 83 1005.9
20260505064532 49 186 7.8 13.0 0.00 0.02 0.00 83 1005.8
20260505063034 49 187 8.7 13.0 0.00 0.02 0.00 83 1005.7
20260505061529 50 171 7.8 13.0 0.00 0.02 0.00 83 1005.7
20260505060035 49 160 4.3 7.8 0.00 0.02 0.00 83 1005.6
20260505054526 49 177 7.0 12.2 0.00 0.02 0.00 83 1005.5
20260505053024 49 119 1.7 4.3 0.00 0.02 0.00 84 1005.5
20260505051523 49 117 2.6 5.2 0.00 0.02 0.00 83 1005.3
20260505041515 50 146 3.5 6.1 0.00 0.02 0.00 83 1005.2
20260505040013 49 151 3.5 7.8 0.00 0.02 0.00 84 1005.2
20260505034512 48 163 3.5 6.1 0.00 0.02 0.02 85 1005.2
20260505033013 48 158 4.3 6.1 0.00 0.02 0.02 85 1005.2
20260505031515 48 171 3.5 6.1 0.00 0.02 0.02 85 1005.1
20260505030012 48 162 4.3 6.1 0.00 0.02 0.02 85 1005.1
20260505024511 48 160 4.3 7.0 0.00 0.02 0.02 84 1005.2
20260505023011 48 167 5.2 7.8 0.00 0.02 0.02 84 1005.2
20260505021510 48 159 5.2 8.7 0.00 0.02 0.02 84 1005.1
20260505020012 48 158 3.5 7.0 0.00 0.02 0.02 84 1005.0
20260505014509 48 140 5.2 8.7 0.00 0.02 0.02 84 1005.0
20260505013008 48 154 5.2 9.6 0.00 0.02 0.02 83 1004.9
20260505011508 48 148 4.3 7.8 0.00 0.02 0.02 83 1004.9
20260505010014 49 156 5.2 7.8 0.00 0.02 0.02 82 1004.8
20260505004507 49 162 5.2 9.6 0.00 0.02 0.02 81 1004.6
20260505003006 49 171 5.2 8.7 0.00 0.02 0.02 82 1004.4
20260505001509 49 168 5.2 9.6 0.00 0.02 0.02 82 1004.2
20260505000005 50 165 3.5 7.0 0.00 0.02 0.02 81 1004.2
20260504234506 51 165 4.3 7.0 0.00 0.02 0.02 79 1003.9
20260504233005 52 153 4.3 7.8 0.00 0.02 0.02 77 1003.5
20260504231508 54 144 3.5 5.2 0.00 0.02 0.02 75 1003.3
20260504230006 54 173 2.6 5.2 0.00 0.02 0.02 74 1003.2
20260504224510 55 125 1.7 4.3 0.00 0.02 0.02 74 1003.0
20260504223004 54 116 2.6 4.3 0.00 0.02 0.02 75 1002.9
20260504221507 53 195 2.6 6.1 0.00 0.02 0.02 76 1002.9
20260504220003 53 200 5.2 8.7 0.00 0.02 0.02 75 1002.9
20260504214506 55 198 7.0 10.4 0.00 0.02 0.02 71 1002.8
20260504213003 55 193 6.1 10.4 0.00 0.02 0.02 72 1002.7
20260504211502 54 207 6.1 13.0 0.00 0.02 0.02 71 1002.7
20260504210002 54 179 7.8 13.9 0.00 0.02 0.02 69 1002.8
20260504204501 56 217 5.2 11.3 0.00 0.02 0.02 73 1002.8
20260504203002 56 176 7.0 13.9 0.00 0.02 0.02 73 1002.5
20260504201600 57 177 5.2 10.4 0.00 0.02 0.02 75 1002.5
20260504200104 56 189 7.8 11.3 0.00 0.02 0.02 77 1002.5
20260504194605 56 180 7.0 10.4 0.00 0.03 0.02 77 1002.6
20260504193057 55 172 5.2 8.7 0.00 0.03 0.02 81 1002.6
20260504191609 52 146 3.5 5.2 0.01 0.03 0.02 86 1002.7
20260504190053 50 167 1.7 4.3 0.02 0.03 0.02 91 1002.9
20260504184552 48 152 2.6 3.5 0.02 0.06 0.02 91 1003.2
20260504183053 46 178 2.6 6.1 0.02 0.06 0.02 92 1003.5
20260504181557 45 195 5.2 8.7 0.01 0.05 0.01 91 1003.7
20260504180051 45 179 7.0 13.0 0.00 0.04 0.00 89 1003.5
20260504174550 46 179 7.8 17.4 0.00 0.09 0.00 83 1003.3
20260504173047 47 170 12.2 20.0 0.00 0.09 0.00 82 1002.9
20260504171552 48 184 13.0 20.0 0.00 0.09 0.00 77 1002.8